Regional Weather Roundup
Issued by NWS

Home | Current Version | Previous Version | Text Only | Print | Product List | Glossary Off
Versions: 1 2 3 4 5 6 7 8 9 10 11 12 13 14 15 16 17 18 19 20 21 22 23 24 25 26 27 28 29 30 31 32 33 34 35 36 37 38 39 40 41 42 43 44 45 46 47 48 49 50

765
ASUS45 KTFX 180110
RWRMT
MONTANA REGIONAL WEATHER ROUNDUP
NATIONAL WEATHER SERVICE GREAT FALLS MT
600 PM MST TUE JAN 17 2017

NOTE: "FAIR" INDICATES FEW OR NO CLOUDS BELOW 12000 FEET WITH NO
SIGNIFICANT WEATHER AND/OR OBSTRUCTIONS TO VISIBILITY.

MTZ001>007-043-180200-
WEST OF THE DIVIDE

CITY           SKY/WX    TMP DP  RH WIND       PRES   REMARKS
KALISPELL      CLOUDY    20  16  84 CALM      29.93F
MISSOULA       PTCLDY    15   8  73 E6        29.98F WCI   6
BUTTE          CLOUDY    16   9  74 S5        29.96R
MULLAN PASS    MOCLDY    27  19  72 S9G20     29.83F WCI  18
ANACONDA         N/A     39  16  38 S12G24    29.91R WCI  32
DEER LODGE       N/A     18   9  68 N7        29.97R WCI   8
EUREKA           N/A     30  19  64 S5        29.90F
HAMILTON         N/A     12   7  79 SE6       29.96F WCI   3
PLAINS           N/A     17   7  65 SE7       29.97S WCI   8
RONAN            N/A     14  10  84 CALM      29.97
$$

MTZ008-052>055-180200-
SOUTHWEST MONTANA

CITY           SKY/WX    TMP DP  RH WIND       PRES   REMARKS
BOZEMAN        CLOUDY    20  12  71 S3        29.97F
DILLON         CLOUDY    28  12  51 SW14      30.00S WCI  17
W YELLOWSTONE  CLOUDY     9   9 100 CALM      30.12F
ENNIS          CLEAR     28  16  59 S18G26    30.04R WCI  16
TWIN BRIDGES     N/A     20   6  54 E2        30.01R
$$

MTZ009-010-012-014-046-048-049-054-180200-
EAST SLOPES AND CENTRAL MONTANA

CITY           SKY/WX    TMP DP  RH WIND       PRES   REMARKS
CUT BANK       MOCLDY    41  27  57 W28       29.69F
GREAT FALLS    CLOUDY    41  22  46 SW29      29.78F
MALMSTROM AFB  CLOUDY    40  27  60 SW23      29.79S
HELENA         CLOUDY    15   7  70 CALM      29.97R
AUGUSTA          N/A     37  29  73 S10       29.77F WCI  29
BOWMANS CRNR     N/A     31  18  57 S28       29.79F WCI  17
CHOTEAU          N/A     43  28  56 SW12      29.77F
CONRAD           N/A     41  31  68 NW5       29.77F
FAIRFIELD        N/A     38  23  55 S24       29.75F WCI  26
POWER            N/A     38  25  58 SW21      29.75F WCI  28
RAYNESFORD       N/A     50  28  43 W18       29.79R
ULM              N/A     40  23  50 MISG      29.81F
$$

MTZ011-013-016-021-045-047-050-051-180200-
NORTH CENTRAL MONTANA

CITY           SKY/WX    TMP DP  RH WIND       PRES   REMARKS
HAVRE          CLEAR     40  30  67 SW31      29.67F
LEWISTOWN      CLOUDY    41  31  67 SW17      29.79S
N BAR RANCH      N/A     45  30  57 SW10      29.81S
CHINOOK          N/A     48  28  46 SW18G26   29.66F
DENTON           N/A     48  31  52 SW16G24   29.74S
FORT BENTON      N/A     45  28  53 MISG      29.76F
GEYSER           N/A     42  30  63 W21       29.77R
GRASS RANGE      N/A     45  32  59 W21       29.72F
JUDITH GAP       N/A     40  26  57 SW21G26   29.81F
ROY              N/A     47  33  58 MISG      29.72R
STANFORD         N/A     44  31  62 N7        29.78S
WINIFRED         N/A     45  31  57 W13       29.76F
$$

MTZ017>020-022>027-061-062-180200-
NORTHEAST MONTANA

CITY           SKY/WX    TMP DP  RH WIND       PRES   REMARKS
GLASGOW        CLOUDY    34  22  61 S6        29.70S WCI  29
JORDAN           N/A     37  29  72 W10       29.74S WCI  30
SIDNEY         CLOUDY    28  21  75 S7        29.75R WCI  21
WOLF POINT     CLOUDY    22  17  81 SW6       29.71F WCI  14
PLENTYWOOD       N/A     39  28  65 W20       29.65F WCI  30
POPLAR           N/A     28  21  74 W6        29.72S WCI  22
SCOBEY           N/A     37  22  55 CALM      29.69R
$$

MTZ028>42-056>058-180200-
SOUTHCENTRAL AND SOUTHEAST MONTANA

CITY           SKY/WX    TMP DP  RH WIND       PRES   REMARKS
BAKER          CLOUDY    32  20  61 W13       29.81S WCI  22
BILLINGS       CLOUDY    33  13  43 SW24      29.87S WCI  20
LIVINGSTON     CLOUDY    43  18  36 SW30G38   29.90S
MILES CITY     CLOUDY    29  17  61 SE10      29.82S WCI  20
BIG TIMBER     CLEAR     41  21  45 W24       29.88F
EKALAKA          N/A     39  15  38 SW7       29.83S
FORSYTH          N/A     39  21  48 W3        29.81S
HARLOWTON        N/A     39  22  50 W20       29.83F WCI  29
LAUREL           N/A     32  13  45 S14       29.88F WCI  22
$$

REGIONAL REPORTS...DAKOTAS

CITY           SKY/WX    TMP DP  RH WIND       PRES   REMARKS
WILLISTON      CLOUDY    30  20  66 S8        29.71F WCI  22
MINOT          CLOUDY    35  23  61 SW22      29.63F WCI  23
DICKINSON      CLOUDY    30  20  66 W17       29.74F WCI  18
BEACH            N/A     34  19  55 SW16G22   29.80F WCI  23
CROSBY           N/A     32  27  80 SW18      29.65S WCI  20
TIOGA            N/A     30  27  86 SW17      29.68S WCI  18
WATFORD CITY     N/A     32  23  69 SW18      29.71F WCI  20
BISMARCK       CLOUDY    27  17  66 W5        29.78F
GRAND FORKS    CLOUDY    22  17  81 S22       29.71F WCI   6
FARGO          CLEAR     21  17  84 S14       29.84F WCI   8
BUFFALO SD       N/A     37  20  50 W7        29.78R WCI  32
RAPID CITY     CLOUDY    31  15  52 CALM      29.89R
$$

REGIONAL REPORTS...WYOMING/IDAHO/WASHINGTON

CITY           SKY/WX    TMP DP  RH WIND       PRES   REMARKS
GILLETTE       CLOUDY    38  22  52 SW18      29.90S WCI  28
SHERIDAN       CLOUDY    22  14  71 CALM      29.89R
BUFFALO WY     CLOUDY    39  20  46 W3        29.91R
CODY           CLOUDY    13   6  74 CALM      29.93F
YELLOWSTONE LA   N/A      5   3  91 CALM      30.11F
IDAHO FALLS    CLOUDY     6   2  83 N8        30.20F WCI  -7
SALMON         CLOUDY    -8 -11  84 E3        30.26S
BOISE          MOCLDY    12   5  73 CALM      30.21F HAZE
SPOKANE        CLOUDY    25  21  85 CALM      29.87F
$$

REGIONAL REPORTS...ALBERTA

CITY           SKY/WX    TMP DP  RH WIND       PRES   REMARKS
CALGARY        PTCLDY    41  30  65 VRB5      29.46R
LETHBRIDGE     MOCLDY    41  32  70 W16       29.63F
MEDICINE HAT   MOCLDY    41  32  70 S15G22    29.53S
WATERTON GATE    N/A     43  28  56 SW17G33     N/A
CARDSTON         N/A     45  30  57 SE5         N/A
MILK RIVER       N/A     41  32  70 SW25        N/A
$$

REGIONAL REPORTS...SASKATCHEWAN

CITY           SKY/WX    TMP DP  RH WIND       PRES   REMARKS
SWIFT CURRENT  CLEAR     39  32  75 W9        29.54S
REGINA         MOCLDY    34  30  86 W10       29.55R WCI  26
SASKATOON      MOCLDY    36  32  87 S9        29.47S WCI  29
CYPRESS HILLS    N/A     39  25  56 SW16G23     N/A  WCI  30
VAL MARIE        N/A     39  28  65 W21         N/A  WCI  29
ROCKGLEN         N/A     36  28  75 SW18        N/A  WCI  25
$$




USA.gov is the U.S. government's official web portal to all federal, state and local government web resources and services.